Location: Gugi
(45.4667°N, 11.1000°E)
Time: 21:39:56
(UTC+00:00)

Cosmos 2034 Rocket - Pass Details

Date: 17 November 2019
Orbit: 959 x 1000 km, 82.9° (Epoch: 07 December)

Event Time Altitude Azimuth Distance (km) Brightness Sun altitude
Rises 17:44:59 0° 349° (N) 3,719 7.1 -21.1°
Reaches altitude 10° 17:47:32 10° 347° (NNW) 2,770 6.5 -21.6°
Maximum altitude 17:53:50 67° 266° (W) 1,077 4.4 -22.7°
Drops below altitude 10° 18:00:07 10° 185° (S) 2,762 6.5 -23.8°
Sets 18:02:39 0° 183° (S) 3,707 7.1 -24.2°
